Tracking 29892 objects as of 21-Nov-2024
HD Live streaming from Space Station
objects crossing your sky now

STARLINK-6147

Track STARLINK-6147 now!
10-day predictions
STARLINK-6147 is classified as:


NORAD ID: 57120
Int'l Code: 2023-090V
Perigee: 565.5 km
Apogee: 566.9 km
Inclination: 43.0 °
Period: 95.8 minutes
Semi major axis: 6937 km
RCS: Unknown
Launch date: June 23, 2023
Source: United States (US)
Launch site: AIR FORCE EASTERN TEST RANGE (AFETR)
Your satellite tracking list
Your tracking list is empty




NASA's NSSDC Master Catalog

Two Line Element Set (TLE):
1 57120U 23090V   24325.36484201 -.00000615  00000-0 -30434-4 0  9995
2 57120  43.0039 331.9097 0001012 265.6135  94.4591 15.02535016 79062
Source of the keplerian elements: AFSPC